Rochester, Indiana, United States (46975)
Lat: 41.06N, Lon: 86.22W
Wx Zone: INZ015
Local Info
Past Weather Observations for Today

NOTE: This archive is for the closest National Weather Service station to Rochester. Information may differ from the station used for current weather conditions.

Click here for Long-term Archive

Time Weather Temperature Dewpoint Humidity Pressure Winds Precip Visibility
12:55
Partly Cloudy
84°F / 29°C 72°F / 22°C 66% 30.09 in
(1019 mb)
SW 5.8 mph
(SW 9 kph)
- 10SM
12:35
Partly Cloudy
82°F / 28°C 70°F / 21°C 66% 30.09 in
(1019 mb)
SW 4.6 mph
(SW 7 kph)
- 10SM
12:15
Mostly Cloudy
82°F / 28°C 70°F / 21°C 66% 30.09 in
(1019 mb)
SSW 6.9 mph
(SSW 11 kph)
- 10SM
11:55
Partly Cloudy
82°F / 28°C 72°F / 22°C 70% 30.12 in
(1020 mb)
SSE 6.9 mph
(SSE 11 kph)
- 10SM
11:35
Partly Cloudy
81°F / 27°C 72°F / 22°C 74% 30.12 in
(1020 mb)
SW 4.6 mph
(SW 7 kph)
- 10SM
11:15
Partly Cloudy
82°F / 28°C 72°F / 22°C 70% 30.12 in
(1020 mb)
SW 4.6 mph
(SW 7 kph)
- 10SM
10:55
Clear
81°F / 27°C 72°F / 22°C 74% 30.12 in
(1020 mb)
SSW 5.8 mph
(SSW 9 kph)
- 10SM
10:35
Clear
81°F / 27°C 70°F / 21°C 70% 30.12 in
(1020 mb)
SW 5.8 mph
(SW 9 kph)
- 10SM
10:15
Clear
81°F / 27°C 72°F / 22°C 74% 30.12 in
(1020 mb)
SSW 4.6 mph
(SSW 7 kph)
- 10SM
09:55
Clear
79°F / 26°C 72°F / 22°C 79% 30.12 in
(1020 mb)
SW 4.6 mph
(SW 7 kph)
- 10SM
09:35
Clear
79°F / 26°C 70°F / 21°C 74% 30.12 in
(1020 mb)
SSW 3.5 mph
(SSW 6 kph)
- 10SM
09:15
Clear
77°F / 25°C 70°F / 21°C 79% 30.12 in
(1020 mb)
Calm - 10SM
08:55
Clear
75°F / 24°C 70°F / 21°C 83% 30.12 in
(1020 mb)
SW 3.5 mph
(SW 6 kph)
- 10SM
08:35
Clear
73°F / 23°C 70°F / 21°C 89% 30.12 in
(1020 mb)
Calm - 10SM
08:15
Clear
73°F / 23°C 70°F / 21°C 89% 30.12 in
(1020 mb)
Calm - 7SM
07:55
Clear
72°F / 22°C 68°F / 20°C 88% 30.12 in
(1020 mb)
Calm - 7SM
07:35
Clear
Fog And Mist
70°F / 21°C 68°F / 20°C 94% 30.12 in
(1020 mb)
Calm - 5SM
07:15
Clear
Fog And Mist
70°F / 21°C 68°F / 20°C 94% 30.12 in
(1020 mb)
Calm - 4SM
06:55
Clear
Fog And Mist
66°F / 19°C 66°F / 19°C 100% 30.12 in
(1020 mb)
Calm - 2 1/2SM
06:35
Clear
Fog And Mist
64°F / 18°C 64°F / 18°C 100% 30.12 in
(1020 mb)
Calm - 2SM
06:15
Clear
Fog And Mist
66°F / 19°C 66°F / 19°C 100% 30.12 in
(1020 mb)
Calm - 2 1/2SM
05:55
Clear
Fog And Mist
66°F / 19°C 66°F / 19°C 100% 30.09 in
(1019 mb)
Calm - 3SM
05:35
Clear
Fog And Mist
66°F / 19°C 66°F / 19°C 100% 30.09 in
(1019 mb)
Calm - 4SM
05:15
Clear
Fog And Mist
66°F / 19°C 66°F / 19°C 100% 30.09 in
(1019 mb)
Calm - 2 1/2SM
04:55
Partly Cloudy
Fog And Mist
68°F / 20°C 68°F / 20°C 100% 30.09 in
(1019 mb)
Calm - 4SM
04:35
Partly Cloudy
Fog And Mist
64°F / 18°C 64°F / 18°C 100% 30.09 in
(1019 mb)
Calm - 2 1/2SM
04:15
Clear
Fog And Mist
66°F / 19°C 64°F / 18°C 94% 30.09 in
(1019 mb)
Calm - 3SM
03:55
Clear
Fog And Mist
66°F / 19°C 66°F / 19°C 100% 30.09 in
(1019 mb)
Calm - 5SM
03:35
Clear
Fog And Mist
68°F / 20°C 66°F / 19°C 94% 30.09 in
(1019 mb)
Calm - 4SM
03:15
Clear
Fog And Mist
68°F / 20°C 66°F / 19°C 94% 30.09 in
(1019 mb)
Calm - 4SM
02:55
Clear
Fog And Mist
68°F / 20°C 68°F / 20°C 100% 30.09 in
(1019 mb)
Calm - 5SM
02:35
Clear
70°F / 21°C 68°F / 20°C 94% 30.09 in
(1019 mb)
Calm - 7SM
02:15
Clear
70°F / 21°C 68°F / 20°C 94% 30.09 in
(1019 mb)
Calm - 7SM
01:55
Clear
70°F / 21°C 68°F / 20°C 94% 30.09 in
(1019 mb)
Calm - 7SM
01:35
Clear
70°F / 21°C 68°F / 20°C 94% 30.09 in
(1019 mb)
Calm - 7SM
01:15
Clear
70°F / 21°C 68°F / 20°C 94% 30.09 in
(1019 mb)
Calm - 7SM
00:55
Clear
70°F / 21°C 68°F / 20°C 94% 30.09 in
(1019 mb)
Calm - 7SM
00:35
Clear
70°F / 21°C 68°F / 20°C 94% 30.09 in
(1019 mb)
Calm - 7SM
00:15
Clear
70°F / 21°C 68°F / 20°C 94% 30.09 in
(1019 mb)
Calm - 10SM
Time Weather Temperature Dewpoint Humidity Pressure Winds Precip Visibility


Weather for websites

WeatherForYou.com, LLC is not responsible for any damages or problems caused by this service. Current weather conditions are obtained from the closest station including government and personal stations which may have varying degrees of accuracy. Weather forecasts are derived from the NOAA NDFD. Like all things, this site belongs to Jesus Christ... He just trusts us to maintain it. If you have any questions or comments email webmaster@weatherforyou.com

Copyright © 2015, WeatherForYou.com LLC. All rights reserved.